Location: Munkebjergskolens Observatorium
(55.3864°N, 10.3987°E)
Time: 11:12:13
(UTC+01:00)

SL-16 DEB - Visible Passes

Search period start: 01 December 2023 00:00
Search period end: 11 December 2023 00:00
Orbit: 602 x 643 km, 71.2° (Epoch: 30 November)

Date Brightness Start Highest point End Pass type
(mag) Time Alt. Az. Time Alt. Az. Time Alt. Az.
01 Dec ? 17:31:46 10° SSE 17:35:17 22° ESE 17:36:22 20° E visible
01 Dec ? 19:09:31 10° SW 19:13:37 64° W 19:13:37 64° W visible
01 Dec ? 20:50:42 10° W 20:50:51 11° W 20:50:51 11° W visible
02 Dec ? 17:49:04 10° S 17:53:17 37° ESE 17:54:46 29° ENE visible
02 Dec ? 19:28:06 10° WSW 19:31:59 42° WNW 19:31:59 42° WNW visible
03 Dec ? 18:06:44 10° SSW 18:11:16 64° ESE 18:12:57 37° NE visible
03 Dec ? 19:46:49 10° WSW 19:50:10 28° WNW 19:50:10 28° WNW visible
04 Dec ? 16:47:11 10° SSE 16:50:30 20° ESE 16:53:44 10° ENE visible
04 Dec ? 18:24:39 10° SW 18:29:14 77° NW 18:30:56 39° NNE visible
04 Dec ? 20:05:39 10° W 20:08:07 20° NW 20:08:07 20° NW visible
05 Dec ? 17:03:58 10° S 17:08:05 34° ESE 17:11:32 14° NE visible
05 Dec ? 18:42:46 10° WSW 18:47:12 48° NW 18:48:43 34° N visible
05 Dec ? 20:24:34 10° WNW 20:25:54 14° NW 20:25:54 14° NW visible
06 Dec ? 17:21:10 10° SSW 17:25:39 58° ESE 17:29:09 16° NE visible
06 Dec ? 19:01:02 10° WSW 19:05:09 32° NW 19:06:20 28° NNW visible
06 Dec ? 20:43:28 10° NW 20:43:29 10° NW 20:43:29 10° NW visible
07 Dec ? 17:38:37 10° SW 17:43:12 85° NW 17:46:36 18° NNE visible
07 Dec ? 19:19:24 10° W 19:23:04 23° NW 19:23:45 22° NNW visible
08 Dec ? 17:56:15 10° SW 18:00:44 53° NW 18:03:52 19° NNE visible
08 Dec ? 19:37:52 10° WNW 19:40:57 17° NNW 19:41:01 17° NNW visible
09 Dec ? 16:34:27 10° S 16:38:52 50° ESE 16:43:17 10° NE visible
09 Dec ? 18:14:03 10° WSW 18:18:15 35° NW 18:20:58 19° NNE visible
09 Dec ? 19:56:20 10° NW 19:58:06 14° NNW 19:58:06 14° NNW visible
10 Dec ? 16:51:26 10° SSW 16:56:00 85° ESE 17:00:34 10° NE visible
10 Dec ? 18:31:58 10° W 18:35:44 25° NW 18:37:54 18° N visible
10 Dec ? 20:14:44 10° NW 20:15:02 11° NNW 20:15:02 11° NNW visible
